Location: Vienna
(48.2082°N, 16.3738°E)
Time: 11:14:48
(UTC+01:00)

ISS - Visible Passes

Search period start: 24 February 2018 00:00
Search period end: 06 March 2018 00:00
Orbit: 402 x 407 km, 51.6° (Epoch: 24 February)

Date Brightness Start Highest point End Pass type
(mag) Time Alt. Az. Time Alt. Az. Time Alt. Az.
27 Feb -1.0 05:33:30 10° S 05:35:41 17° SE 05:37:51 10° E visible
01 Mar -2.2 05:24:26 10° SSW 05:27:23 32° SE 05:30:21 10° E visible
02 Mar -1.6 04:34:22 18° SSE 04:35:17 20° SE 04:37:45 10° E visible
03 Mar -0.6 03:44:24 10° ESE 03:44:24 10° ESE 03:44:32 10° ESE visible
03 Mar -3.5 05:17:04 20° SW 05:19:10 61° SSE 05:22:25 10° ENE visible
04 Mar -2.8 04:26:59 38° SE 04:26:59 38° SE 04:30:02 10° ENE visible
05 Mar -0.7 03:36:49 14° E 03:36:49 14° E 03:37:29 10° E visible
05 Mar -3.9 05:09:28 29° WSW 05:11:01 78° NNW 05:14:18 10° ENE visible
